Location: Enikep?du
(16.5133°N, 80.7066°E)
Time: 21:17:48
(UTC+00:00)

USA 32 - Pass Details

Date: 20 January 2020
Orbit: 777 x 783 km, 85.0° (Epoch: 29 January)

Event Time Altitude Azimuth Distance (km) Brightness Sun altitude
Rises 00:28:40 0° 1° (N) 3,255 7.1 -10.0°
Reaches altitude 10° 00:31:01 10° 4° (N) 2,327 6.4 -9.5°
Maximum altitude 00:36:13 71° 88° (E) 823 4.4 -8.3°
Drops below altitude 10° 00:41:25 10° 172° (S) 2,327 6.9 -7.1°
Sets 00:43:47 0° 174° (S) 3,255 7.6 -6.6°
